DM5RC Weather Reports


Display with metric or nautical units.
time (UTC)temp
F
wind
direction
speed
MPH
gust
MPH
rain 1hr
in
rain 24hr
in
rain mn
in
humidity
%
barometer
mb
20260904041827 64 247 3.0 6.0 0.00 0.00 0.00 87 1013.4
20260904041347 64 227 2.0 6.0 0.00 0.00 0.00 87 1013.4
20260904040826 65 258 2.0 5.0 0.00 0.00 0.00 86 1013.3
20260904040327 65 216 2.0 7.0 0.00 0.00 0.00 86 1013.4
20260904035828 65 276 3.0 10.0 0.00 0.00 0.00 86 1013.3
20260904035330 65 270 4.0 10.0 0.00 0.00 0.00 86 1013.2
20260904034852 65 187 3.0 9.0 0.00 0.00 0.00 86 1013.2
20260904034353 65 251 4.0 7.0 0.00 0.00 0.00 86 1013.4
20260904033813 65 225 3.0 7.0 0.00 0.00 0.00 86 1013.5
20260904033335 65 244 3.0 8.0 0.00 0.00 0.00 86 1013.5
20260904032838 65 226 4.0 9.0 0.00 0.00 0.00 85 1013.7
20260904032343 65 269 4.0 9.0 0.00 0.00 0.00 85 1013.7
20260904031846 65 212 4.0 6.0 0.00 0.00 0.00 85 1013.6
20260904031330 65 255 3.0 6.0 0.00 0.00 0.00 85 1013.7
20260904030832 65 240 3.0 6.0 0.00 0.00 0.00 85 1013.6
20260904030314 65 266 3.0 6.0 0.00 0.00 0.00 85 1013.7
20260904025817 65 272 3.0 6.0 0.00 0.00 0.00 86 1013.6
20260904025340 65 227 2.0 6.0 0.00 0.00 0.00 85 1013.7
20260904024820 65 255 3.0 6.0 0.00 0.00 0.00 85 1013.8
20260904024341 65 261 3.0 7.0 0.00 0.00 0.00 85 1013.8
20260904023820 65 266 3.0 8.0 0.00 0.00 0.00 85 1013.8
20260904023320 65 257 3.0 8.0 0.00 0.00 0.00 85 1013.6
20260904022841 65 257 1.0 6.0 0.00 0.00 0.00 85 1013.8
20260904022320 65 283 3.0 8.0 0.00 0.00 0.00 85 1013.9
20260904021841 65 244 4.0 9.0 0.00 0.00 0.00 85 1014.0
20260904021320 65 267 5.0 9.0 0.00 0.00 0.00 85 1014.0
20260904020841 65 259 4.0 10.0 0.00 0.00 0.00 85 1014.0
20260904020341 65 272 4.0 7.0 0.00 0.00 0.00 85 1014.0
20260904015821 65 263 2.0 6.0 0.00 0.00 0.00 85 1014.0
20260904015322 65 248 3.0 9.0 0.00 0.00 0.00 85 1014.0
20260904014823 65 277 5.0 9.0 0.00 0.00 0.00 85 1014.0
20260904014324 65 249 4.0 8.0 0.00 0.00 0.00 85 1014.0
20260904013826 65 257 3.0 8.0 0.00 0.00 0.00 85 1013.9
20260904013329 65 271 3.0 9.0 0.00 0.00 0.00 85 1014.0
20260904012812 65 239 4.0 8.0 0.00 0.00 0.00 85 1014.1
20260904012314 65 298 3.0 9.0 0.00 0.00 0.00 85 1014.0
20260904011817 65 266 4.0 8.0 0.00 0.00 0.00 84 1014.0
20260904011319 65 254 4.0 7.0 0.00 0.00 0.00 84 1013.8
20260904010822 65 271 4.0 6.0 0.00 0.00 0.00 84 1013.9
20260904010325 65 230 3.0 7.0 0.00 0.00 0.00 84 1014.0
20260904005826 65 219 4.0 8.0 0.00 0.00 0.00 84 1013.9
20260904005328 65 237 2.0 8.0 0.00 0.00 0.00 84 1013.9
20260904004830 65 268 3.0 8.0 0.00 0.00 0.00 84 1014.0
20260904004341 65 257 5.0 8.0 0.00 0.00 0.00 84 1014.1
20260904003823 65 227 4.0 9.0 0.00 0.00 0.00 84 1014.1
20260904003326 65 249 4.0 9.0 0.00 0.00 0.00 84 1014.1
20260904002851 65 240 3.0 7.0 0.00 0.00 0.00 84 1014.1
20260904002313 65 283 4.0 9.0 0.00 0.00 0.00 84 1014.1
20260904001818 65 273 4.0 8.0 0.00 0.00 0.00 83 1014.2
20260904001324 65 272 4.0 8.0 0.00 0.00 0.00 84 1014.1
20260904000825 65 246 3.0 8.0 0.00 0.00 0.00 83 1014.2
20260904000328 65 273 3.0 7.0 0.00 0.00 0.00 83 1014.3
20260903235828 65 238 4.0 7.0 0.00 0.00 0.00 83 1014.3
20260903235331 66 220 4.0 8.0 0.00 0.00 0.00 83 1014.4
20260903234833 66 258 4.0 10.0 0.00 0.00 0.00 83 1014.4
20260903234353 66 235 4.0 11.0 0.00 0.00 0.00 82 1014.4
20260903233814 66 262 6.0 11.0 0.00 0.00 0.00 82 1014.4
20260903233315 66 264 5.0 9.0 0.00 0.00 0.00 83 1014.4
20260903232817 66 269 4.0 8.0 0.00 0.00 0.00 83 1014.5
20260903232319 66 243 3.0 13.0 0.00 0.00 0.00 83 1014.5
20260903231821 66 251 5.0 13.0 0.00 0.00 0.00 82 1014.5
20260903231322 66 255 6.0 12.0 0.00 0.00 0.00 82 1014.7
20260903230823 66 262 5.0 10.0 0.00 0.00 0.00 82 1014.8
20260903230321 66 277 4.0 11.0 0.00 0.00 0.00 82 1014.8
20260903225843 66 229 5.0 11.0 0.00 0.00 0.00 83 1014.6
20260903225323 65 276 5.0 9.0 0.00 0.00 0.00 83 1014.6
20260903224824 65 259 5.0 9.0 0.00 0.00 0.00 83 1014.7
20260903224325 65 270 4.0 12.0 0.00 0.00 0.00 83 1014.7
20260903223826 65 276 4.0 12.0 0.00 0.00 0.00 83 1014.7
20260903223329 65 288 6.0 11.0 0.00 0.00 0.00 83 1014.7
20260903222814 65 254 3.0 9.0 0.00 0.00 0.00 83 1014.6
20260903222318 65 276 5.0 10.0 0.00 0.00 0.00 83 1014.6
20260903221822 65 271 6.0 13.0 0.00 0.00 0.00 83 1014.6
20260903221326 65 252 6.0 13.0 0.00 0.00 0.00 83 1014.6
20260903220829 65 225 5.0 10.0 0.00 0.00 0.00 83 1014.6
20260903220331 65 269 5.0 10.0 0.00 0.00 0.00 84 1014.6
20260903215826 65 281 5.0 9.0 0.00 0.00 0.00 84 1014.6
20260903215328 65 263 4.0 9.0 0.00 0.00 0.00 83 1014.6
20260903214812 65 257 5.0 11.0 0.00 0.00 0.00 83 1014.6
20260903214314 65 271 5.0 11.0 0.00 0.00 0.00 83 1014.6
20260903213835 65 228 6.0 11.0 0.00 0.00 0.00 83 1014.6
20260903213316 65 276 4.0 13.0 0.00 0.00 0.00 83 1014.6
20260903212816 65 236 5.0 14.0 0.00 0.00 0.00 83 1014.6
20260903212317 65 280 5.0 14.0 0.00 0.00 0.00 83 1014.7
20260903211840 65 260 5.0 7.0 0.00 0.00 0.00 84 1014.8
20260903211320 65 236 4.0 10.0 0.00 0.00 0.00 84 1014.8
20260903210822 65 274 5.0 10.0 0.00 0.00 0.00 84 1014.8
20260903210324 65 283 4.0 9.0 0.00 0.00 0.00 84 1014.7
20260903205827 65 278 4.0 10.0 0.00 0.00 0.00 84 1014.6
20260903205328 65 233 3.0 12.0 0.00 0.00 0.00 84 1014.7
20260903204831 65 261 6.0 12.0 0.00 0.00 0.00 84 1014.6
20260903204313 65 258 4.0 11.0 0.00 0.00 0.00 84 1014.7
20260903203814 65 244 3.0 11.0 0.00 0.00 0.00 84 1014.9
20260903203338 65 282 4.0 11.0 0.00 0.00 0.00 84 1014.9
20260903202821 65 256 4.0 10.0 0.00 0.00 0.00 84 1015.0
20260903202326 65 261 6.0 10.0 0.00 0.00 0.00 84 1015.0
20260903201829 65 264 4.0 11.0 0.00 0.00 0.00 83 1015.1
20260903201313 65 250 4.0 12.0 0.00 0.00 0.00 83 1014.9
20260903200819 65 236 6.0 12.0 0.00 0.00 0.00 83 1014.9
20260903200323 65 248 5.0 11.0 0.00 0.00 0.00 83 1014.8
20260903195824 65 257 4.0 12.0 0.00 0.00 0.00 83 1014.7
20260903195326 65 255 6.0 12.0 0.00 0.00 0.00 83 1014.7
20260903194828 65 250 6.0 12.0 0.00 0.00 0.00 83 1014.7
20260903194330 65 218 5.0 12.0 0.00 0.00 0.00 82 1014.9
20260903193833 66 283 4.0 12.0 0.00 0.00 0.00 82 1014.9
20260903193313 66 264 5.0 12.0 0.00 0.00 0.00 82 1014.9
20260903192814 66 272 6.0 12.0 0.00 0.00 0.00 82 1014.8
20260903192315 66 210 6.0 13.0 0.00 0.00 0.00 82 1014.8
20260903191818 66 264 6.0 13.0 0.00 0.00 0.00 82 1014.9
20260903191322 66 261 5.0 13.0 0.00 0.00 0.00 82 1014.9
20260903190826 66 270 7.0 12.0 0.00 0.00 0.00 82 1014.9
20260903190331 66 269 4.0 13.0 0.00 0.00 0.00 82 1014.9
20260903185815 66 243 5.0 13.0 0.00 0.00 0.00 81 1014.9
20260903185318 66 285 6.0 11.0 0.00 0.00 0.00 81 1015.0
20260903184841 66 272 5.0 13.0 0.00 0.00 0.00 81 1014.9
20260903184322 66 223 5.0 13.0 0.00 0.00 0.00 81 1014.8
20260903183824 66 266 6.0 18.0 0.00 0.00 0.00 81 1014.9
20260903183317 66 259 10.0 18.0 0.00 0.00 0.00 81 1014.9
20260903182818 67 274 7.0 17.0 0.00 0.00 0.00 80 1014.7
20260903182338 67 269 9.0 17.0 0.00 0.00 0.00 80 1014.8
20260903181817 67 248 7.0 14.0 0.00 0.00 0.00 80 1014.8
20260903181318 67 268 10.0 14.0 0.00 0.00 0.00 80 1014.7
20260903180817 67 272 5.0 16.0 0.00 0.00 0.00 79 1014.6
20260903180328 67 269 9.0 16.0 0.00 0.00 0.00 79 1014.6
20260903175831 67 264 9.0 16.0 0.00 0.00 0.00 79 1014.6
20260903175314 67 287 6.0 15.0 0.00 0.00 0.00 79 1014.6
20260903174817 68 270 6.0 13.0 0.00 0.00 0.00 78 1014.7
20260903174318 68 245 7.0 15.0 0.00 0.00 0.00 77 1014.7
20260903173821 68 273 8.0 22.0 0.00 0.00 0.00 77 1014.5
20260903173324 68 234 11.0 22.0 0.00 0.00 0.00 77 1014.5
20260903172827 68 281 9.0 22.0 0.00 0.00 0.00 77 1014.5
20260903172330 68 223 10.0 25.0 0.00 0.00 0.00 76 1014.4
20260903171814 69 279 13.0 25.0 0.00 0.00 0.00 75 1014.4
20260903171316 69 274 9.0 22.0 0.00 0.00 0.00 75 1014.3
20260903170819 69 258 8.0 25.0 0.00 0.00 0.00 74 1014.5
20260903170321 69 316 13.0 25.0 0.00 0.00 0.00 74 1014.4
20260903165825 69 255 7.0 20.0 0.00 0.00 0.00 73 1014.4
20260903165327 69 240 12.0 20.0 0.00 0.00 0.00 72 1014.4
20260903164850 70 220 12.0 22.0 0.00 0.00 0.00 71 1014.3
20260903164331 70 267 12.0 28.0 0.00 0.00 0.00 70 1014.2
20260903163835 70 285 9.0 22.0 0.00 0.00 0.00 70 1014.2
20260903163316 71 236 15.0 22.0 0.00 0.00 0.00 69 1014.3
20260903162821 71 266 9.0 22.0 0.00 0.00 0.00 68 1014.2
20260903162324 71 72 6.0 25.0 0.00 0.00 0.00 68 1014.2
20260903161828 71 293 14.0 27.0 0.00 0.00 0.00 67 1014.4
20260903161328 72 245 15.0 27.0 0.00 0.00 0.00 66 1014.3
20260903160816 72 177 10.0 26.0 0.00 0.00 0.00 65 1014.3
20260903160314 73 249 14.0 26.0 0.00 0.00 0.00 64 1014.4
20260903155814 73 263 7.0 24.0 0.00 0.00 0.00 63 1014.2
20260903155317 74 283 14.0 27.0 0.00 0.00 0.00 62 1014.2
20260903154820 74 264 15.0 27.0 0.00 0.00 0.00 61 1014.3
20260903154323 74 268 11.0 24.0 0.00 0.00 0.00 61 1014.2
20260903153845 75 241 14.0 24.0 0.00 0.00 0.00 60 1014.1
20260903153346 75 269 8.0 20.0 0.00 0.00 0.00 60 1014.1
20260903152825 75 276 9.0 25.0 0.00 0.00 0.00 59 1014.1
20260903152347 75 288 12.0 26.0 0.00 0.00 0.00 59 1014.2
20260903151849 75 240 12.0 26.0 0.00 0.00 0.00 59 1014.2
20260903151330 75 264 10.0 20.0 0.00 0.00 0.00 59 1014.2
20260903150833 75 282 12.0 22.0 0.00 0.00 0.00 59 1014.2
20260903150333 75 267 8.0 18.0 0.00 0.00 0.00 59 1014.5
20260903145816 75 248 7.0 12.0 0.00 0.00 0.00 60 1014.3
20260903145337 75 264 5.0 12.0 0.00 0.00 0.00 60 1014.2
20260903144834 75 272 5.0 15.0 0.00 0.00 0.00 60 1014.3
20260903144314 75 252 5.0 15.0 0.00 0.00 0.00 60 1014.4
20260903143816 75 224 8.0 12.0 0.00 0.00 0.00 59 1014.4
20260903143318 75 260 5.0 15.0 0.00 0.00 0.00 60 1014.4
20260903142820 74 284 5.0 15.0 0.00 0.00 0.00 60 1014.5
20260903142342 74 276 4.0 13.0 0.00 0.00 0.00 59 1014.6
20260903141824 74 249 7.0 15.0 0.00 0.00 0.00 59 1014.6
20260903141326 74 268 8.0 15.0 0.00 0.00 0.00 59 1014.7
20260903140849 74 264 5.0 14.0 0.00 0.00 0.00 59 1014.7
20260903140331 74 269 6.0 18.0 0.00 0.00 0.00 59 1014.8
20260903135816 74 210 11.0 18.0 0.00 0.00 0.00 58 1014.9
20260903135339 74 254 7.0 17.0 0.00 0.00 0.00 58 1014.9
20260903134820 74 238 8.0 14.0 0.00 0.00 0.00 58 1014.8
20260903134320 75 263 8.0 15.0 0.00 0.00 0.00 57 1014.8
20260903133819 74 250 7.0 15.0 0.00 0.00 0.00 58 1014.8
20260903133319 74 230 7.0 16.0 0.00 0.00 0.00 57 1014.9
20260903132819 75 236 7.0 13.0 0.00 0.00 0.00 57 1015.0
20260903132320 74 219 7.0 16.0 0.00 0.00 0.00 57 1015.0
20260903131840 74 283 7.0 16.0 0.00 0.00 0.00 58 1015.1
20260903131321 73 233 8.0 16.0 0.00 0.00 0.00 58 1015.2
20260903130823 73 138 5.0 11.0 0.00 0.00 0.00 59 1015.2
20260903130318 73 229 6.0 13.0 0.00 0.00 0.00 58 1015.2
20260903125821 73 184 4.0 15.0 0.00 0.00 0.00 59 1015.4
20260903125343 73 257 5.0 15.0 0.00 0.00 0.00 59 1015.5
20260903124825 73 242 5.0 13.0 0.00 0.00 0.00 59 1015.5
20260903124328 72 272 5.0 13.0 0.00 0.00 0.00 58 1015.6
20260903123830 72 233 4.0 11.0 0.00 0.00 0.00 60 1015.7
20260903123331 72 269 5.0 14.0 0.00 0.00 0.00 61 1015.8
20260903122837 71 268 7.0 16.0 0.00 0.00 0.00 60 1015.8
20260903122319 72 261 8.0 16.0 0.00 0.00 0.00 61 1015.8
20260903121821 72 274 7.0 15.0 0.00 0.00 0.00 61 1015.9
20260903121323 72 262 7.0 13.0 0.00 0.00 0.00 61 1016.0
20260903120826 71 272 5.0 12.0 0.00 0.00 0.00 62 1016.0
20260903120328 71 238 6.0 16.0 0.00 0.00 0.00 62 1016.0
20260903115830 71 271 7.0 16.0 0.00 0.00 0.00 62 1016.1
20260903115313 71 290 6.0 14.0 0.00 0.00 0.00 63 1016.1
20260903114814 71 245 6.0 14.0 0.00 0.00 0.00 63 1016.1
20260903114315 71 185 7.0 12.0 0.00 0.00 0.00 63 1016.1
20260903113817 71 248 3.0 10.0 0.00 0.00 0.00 63 1016.2
20260903113317 71 262 7.0 15.0 0.00 0.00 0.00 62 1016.2
20260903112816 71 258 6.0 16.0 0.00 0.00 0.00 63 1016.3
20260903112314 71 258 10.0 19.0 0.00 0.00 0.00 61 1016.3
20260903111819 72 227 7.0 18.0 0.00 0.00 0.00 62 1016.2
20260903111322 72 249 9.0 17.0 0.00 0.00 0.00 62 1016.2
20260903110823 72 250 8.0 14.0 0.00 0.00 0.00 62 1016.4
20260903110325 72 270 7.0 11.0 0.00 0.00 0.00 62 1016.4
20260903105842 71 268 7.0 14.0 0.00 0.00 0.00 63 1016.4
20260903105341 71 263 7.0 14.0 0.00 0.00 0.00 63 1016.5
20260903104821 71 185 5.0 10.0 0.00 0.00 0.00 64 1016.6
20260903104321 70 246 3.0 21.0 0.00 0.00 0.00 65 1016.6
20260903103822 70 231 7.0 21.0 0.00 0.00 0.00 64 1016.8
20260903103344 71 270 6.0 13.0 0.00 0.00 0.00 64 1017.1
20260903102826 70 286 6.0 13.0 0.00 0.00 0.00 64 1017.0
20260903102350 71 257 7.0 13.0 0.00 0.00 0.00 63 1017.0
20260903101812 70 271 7.0 12.0 0.00 0.00 0.00 64 1017.0
20260903101314 70 267 4.0 17.0 0.00 0.00 0.00 65 1017.1
20260903100817 70 277 7.0 17.0 0.00 0.00 0.00 65 1017.2
20260903100320 70 232 5.0 12.0 0.00 0.00 0.00 65 1017.2
20260903095821 70 247 5.0 12.0 0.00 0.00 0.00 66 1017.2
20260903095323 70 214 7.0 12.0 0.00 0.00 0.00 65 1017.2
20260903094822 69 255 8.0 12.0 0.00 0.00 0.00 65 1017.3
20260903094322 69 261 5.0 12.0 0.00 0.00 0.00 66 1017.2
20260903093843 69 267 6.0 12.0 0.00 0.00 0.00 66 1017.2
20260903093322 69 257 5.0 15.0 0.00 0.00 0.00 68 1017.4
20260903092822 69 179 9.0 16.0 0.00 0.00 0.00 67 1017.4
20260903092322 69 202 9.0 16.0 0.00 0.00 0.00 67 1017.6
20260903091823 69 293 6.0 11.0 0.00 0.00 0.00 69 1017.5
20260903091342 69 188 7.0 11.0 0.00 0.00 0.00 70 1017.6
20260903090822 69 233 2.0 13.0 0.00 0.00 0.00 71 1017.5
20260903090322 68 259 7.0 13.0 0.00 0.00 0.00 70 1017.7
20260903085822 68 260 4.0 12.0 0.00 0.00 0.00 71 1017.6
20260903085322 68 219 5.0 12.0 0.00 0.00 0.00 71 1017.7
20260903084823 68 269 4.0 8.0 0.00 0.00 0.00 73 1017.8
20260903084325 68 262 3.0 11.0 0.00 0.00 0.00 74 1017.8
20260903083828 67 240 5.0 11.0 0.00 0.00 0.00 73 1017.9
20260903083330 67 207 4.0 11.0 0.00 0.00 0.00 74 1018.0
20260903082832 67 261 4.0 11.0 0.00 0.00 0.00 75 1018.1
20260903082314 67 241 4.0 11.0 0.00 0.00 0.00 75 1018.1
20260903081817 67 222 7.0 13.0 0.00 0.00 0.00 75 1018.0
20260903081320 67 281 6.0 13.0 0.00 0.00 0.00 75 1017.9
20260903080822 66 250 6.0 11.0 0.00 0.00 0.00 76 1017.9
20260903080326 66 248 5.0 11.0 0.00 0.00 0.00 76 1017.8
20260903075825 66 272 5.0 10.0 0.00 0.00 0.00 77 1017.7
20260903075327 66 274 6.0 10.0 0.00 0.00 0.00 77 1017.8
20260903074828 66 212 4.0 10.0 0.00 0.00 0.00 78 1017.8
20260903074328 65 264 4.0 9.0 0.00 0.00 0.00 78 1017.7
20260903073829 65 259 3.0 9.0 0.00 0.00 0.00 78 1017.6
20260903073349 65 262 4.0 11.0 0.00 0.00 0.00 79 1017.9
20260903072850 64 231 5.0 11.0 0.00 0.00 0.00 80 1018.0
20260903072329 64 280 4.0 10.0 0.00 0.00 0.00 80 1018.0
20260903071830 65 224 5.0 8.0 0.00 0.00 0.00 79 1017.8
20260903071351 64 147 2.0 9.0 0.00 0.00 0.00 82 1017.8
20260903070830 63 210 4.0 8.0 0.00 0.00 0.00 82 1017.9
20260903070321 62 203 5.0 8.0 0.00 0.00 0.00 83 1017.9
20260903065821 62 262 3.0 7.0 0.00 0.00 0.00 84 1017.9
20260903065322 61 277 3.0 5.0 0.00 0.00 0.00 85 1018.0
20260903064825 61 199 1.0 4.0 0.00 0.00 0.00 85 1018.0
20260903064330 61 259 2.0 7.0 0.00 0.00 0.00 85 1018.1
20260903063814 61 206 3.0 7.0 0.00 0.00 0.00 85 1018.0
20260903063315 61 194 2.0 7.0 0.00 0.00 0.00 85 1018.0
20260903062818 61 209 2.0 5.0 0.00 0.00 0.00 85 1018.2
20260903062319 61 243 3.0 5.0 0.00 0.00 0.00 85 1018.2
20260903061819 61 270 2.0 5.0 0.00 0.00 0.00 86 1018.2
20260903061317 60 224 3.0 5.0 0.00 0.00 0.00 86 1018.2
20260903060838 60 256 2.0 5.0 0.00 0.00 0.00 86 1018.3
20260903060337 60 231 3.0 5.0 0.00 0.00 0.00 87 1018.2
20260903055817 60 259 2.0 8.0 0.00 0.00 0.00 87 1018.4
20260903055317 60 219 4.0 8.0 0.00 0.00 0.00 87 1018.3
20260903054817 60 228 2.0 6.0 0.00 0.00 0.00 87 1018.2
20260903054319 60 226 4.0 6.0 0.00 0.00 0.00 87 1018.1
20260903053822 59 208 2.0 5.0 0.00 0.00 0.00 87 1018.1
20260903053323 59 249 2.0 6.0 0.00 0.00 0.00 87 1018.2
20260903052827 59 270 3.0 7.0 0.00 0.00 0.00 87 1018.1
20260903052349 59 233 3.0 7.0 0.00 0.00 0.00 87 1018.1
20260903051831 59 236 3.0 6.0 0.00 0.00 0.00 88 1018.2
20260903051334 59 234 3.0 7.0 0.00 0.00 0.00 88 1018.2
20260903050848 58 255 2.0 6.0 0.00 0.00 0.00 88 1018.1
20260903050325 58 269 2.0 6.0 0.00 0.00 0.00 88 1018.1
20260903045812 58 290 3.0 5.0 0.00 0.00 0.00 88 1018.1
20260903045316 58 191 2.0 5.0 0.00 0.00 0.00 88 1018.0
20260903044817 58 230 2.0 4.0 0.00 0.00 0.00 88 1018.0
20260903044336 58 237 2.0 4.0 0.00 0.00 0.00 88 1018.0
20260903043816 58 270 3.0 4.0 0.00 0.00 0.00 87 1018.0
20260903043318 58 246 2.0 4.0 0.00 0.00 0.00 87 1018.0
20260903042821 58 230 2.0 5.0 0.00 0.00 0.00 87 1018.0
20260903042322 58 266 2.0 5.0 0.00 0.00 0.00 87 1018.0